Location: Unspecified
(48.2082°N, 0.0000°E)
Time: 04:58:31
(UTC+00:00)

Transit 4A - Pass Details

Date: 23 June 2019
Orbit: 862 x 982 km, 66.8° (Epoch: 20 July)

Event Time Altitude Azimuth Distance (km) Brightness Sun altitude
Rises 09:09:18 0° 236° (SW) 3,629 10.8 47.9°
Reaches altitude 10° 09:11:56 10° 242° (WSW) 2,700 10.2 48.3°
Maximum altitude 09:18:00 46° 315° (NW) 1,289 8.8 49.3°
Drops below altitude 10° 09:24:12 10° 28° (NNE) 2,746 10.5 50.2°
Sets 09:26:55 0° 35° (NE) 3,696 11.1 50.6°
